Wind_Speed
23 24 29 33 32 32 32 32 30 29 25 22 22 20 20 21 20 17 17 17 20 21 21 19 19 19 17 16 17 16 17 18 19 18 18 20 21 22 22 22 23 24 23 21 21 22 23 23 23 23 23 23 23 23 22 21 21 21 20 20 18 18 17 16 15 15 14 13 12 11 10 10 10 11 12 13 12 12 13 14 14 13 12 13 13 13
24 28 31 32 30 29 30 30 29 30 28 25 23 22 21 22 21 19 19 19 20 21 20 20 20 20 20 19 18 17 18 19 19 19 19 19 20 21 22 23 23 24 23 23 24 25 25 25 25 25 25 25 24 23 22 21 21 21 20 20 19 18 17 17 16 14 13 13 12 11 11 12 12 12 12 12 12 12 14 14 14 14 13 13 14 14
26 31 30 29 28 28 28 30 31 30 30 28 25 23 22 21 22 21 20 20 21 20 19 19 20 20 21 21 20 19 20 20 19 20 20 20 20 21 22 23 23 24 24 25 27 27 27 27 26 27 26 26 25 24 23 22 22 21 21 20 19 19 18 17 16 15 13 13 14 14 14 14 13 13 13 12 13 13 14 14 13 14 14 13 14 13
28 30 29 27 27 29 29 29 31 31 31 31 28 24 22 21 23 21 17 17 19 18 17 18 19 20 20 21 22 21 20 20 20 20 20 20 21 21 21 22 22 23 24 25 28 27 26 28 28 29 28 27 26 26 25 24 23 22 21 20 19 19 18 18 17 15 14 15 15 17 17 16 15 15 14 13 13 13 14 14 13 13 13 13 12 11
26 24 26 28 26 28 31 29 29 32 32 32 31 26 23 23 23 21 17 17 16 16 18 18 18 20 22 22 23 23 22 22 21 21 22 22 22 21 21 22 21 22 23 25 28 28 26 28 29 29 29 28 28 27 25 24 24 22 21 19 19 19 19 19 18 16 16 17 17 19 19 18 17 16 15 14 14 14 13 13 12 12 12 11 9 8
27 21 22 28 29 28 31 32 31 31 31 32 32 30 26 23 21 22 20 19 18 19 22 22 17 17 22 24 23 23 23 24 23 23 24 24 24 24 22 23 23 22 23 25 27 28 28 28 29 29 29 29 29 28 25 25 24 23 21 20 19 20 21 20 19 18 18 19 19 20 20 19 18 17 16 14 14 14 13 12 12 11 10 10 8 7
27 23 22 27 31 30 30 33 32 30 31 32 31 30 29 25 22 23 22 20 19 19 21 24 19 16 19 23 24 24 24 25 25 25 26 25 26 27 25 24 23 23 23 23 24 26 27 28 29 29 29 28 28 27 25 25 25 23 22 21 21 21 22 22 20 20 20 21 20 20 19 18 17 17 17 16 16 15 13 13 12 11 10 9 8 6
26 26 26 26 29 32 33 34 33 32 33 31 27 27 29 30 27 26 25 23 21 19 19 24 25 21 19 21 23 25 25 26 27 26 26 26 26 27 27 26 25 24 24 23 21 23 25 26 27 27 27 25 25 25 25 25 25 24 22 21 22 22 23 23 22 21 22 22 21 20 20 19 18 18 17 17 17 16 14 14 14 13 11 9 7 6
24 29 30 28 30 33 34 33 31 30 32 30 26 23 25 28 28 29 29 26 21 20 21 24 26 21 19 21 21 23 26 27 28 28 26 25 25 25 25 26 26 25 25 25 22 20 22 24 23 24 24 23 24 24 25 24 24 23 22 22 23 24 24 24 23 22 23 22 21 21 21 20 19 19 17 16 17 17 15 15 16 14 12 10 8 7
21 27 29 28 31 32 31 30 30 30 30 28 26 25 25 26 28 30 30 27 23 21 22 25 26 19 16 21 23 22 25 27 27 27 26 25 24 24 25 26 27 26 25 25 25 22 20 21 22 22 23 22 23 25 24 24 24 24 23 24 24 25 24 24 24 24 24 22 22 22 21 22 21 20 19 18 17 18 17 17 16 15 13 12 10 9
20 21 26 29 29 29 28 28 30 31 29 26 26 28 28 25 25 26 29 30 24 20 24 28 29 23 16 19 25 25 25 25 25 25 24 24 25 25 25 24 25 28 26 24 23 24 21 21 22 22 23 23 23 25 25 24 25 25 25 25 25 25 25 25 25 24 24 23 23 23 22 22 22 21 21 20 19 19 20 18 17 16 14 13 12 10
23 20 24 29 28 27 27 29 29 29 29 27 26 29 27 23 23 23 28 30 19 14 24 29 30 28 21 20 24 25 25 23 24 25 23 23 24 24 22 18 19 27 30 26 23 25 24 22 23 22 22 23 23 25 26 26 26 26 26 27 27 26 26 26 26 25 24 24 24 24 23 22 22 22 22 21 20 21 21 20 18 17 16 15 13 12
30 27 23 24 27 28 28 30 30 29 31 30 28 30 26 19 18 17 18 21 17 18 26 26 26 28 27 24 23 23 23 23 24 25 24 22 22 24 22 17 15 19 27 29 24 23 25 23 23 23 22 23 24 25 26 26 27 27 27 28 27 27 26 26 26 25 25 25 24 24 23 23 23 23 22 22 21 22 22 21 20 19 17 16 15 13
27 29 28 25 26 30 31 32 32 31 33 33 33 33 26 16 12 11 12 15 17 22 27 25 21 22 25 26 26 25 23 22 23 25 23 21 20 22 21 19 17 16 22 30 23 18 21 21 21 23 22 22 23 24 24 24 25 26 27 27 27 27 27 27 26 26 25 25 24 24 23 23 23 23 23 22 23 24 23 22 22 20 19 18 17 15
22 23 32 33 27 28 34 35 33 30 31 34 34 33 30 24 17 12 12 13 15 19 25 26 22 20 22 22 23 27 26 21 20 23 24 21 19 19 18 19 22 19 18 24 22 17 18 18 18 21 22 22 22 22 22 22 23 25 24 25 25 26 26 26 26 26 25 25 25 24 24 24 24 23 23 23 24 25 25 24 24 23 22 20 19 18
23 22 27 32 28 27 32 36 33 29 29 31 32 34 35 32 28 21 16 20 22 20 20 25 24 24 24 20 16 21 25 24 20 20 23 23 20 20 18 18 23 22 17 20 20 18 19 19 18 18 20 21 21 22 23 22 22 22 21 21 23 24 25 25 25 25 25 26 25 25 24 24 24 24 23 24 25 25 25 25 25 24 24 23 22 20
23 22 21 27 30 29 30 32 35 34 30 27 32 39 39 33 32 27 21 24 25 17 17 25 26 25 26 23 19 18 20 23 22 22 24 24 22 20 19 19 21 21 19 21 20 18 19 21 20 18 19 20 21 22 22 22 22 21 19 19 21 23 24 24 25 25 26 26 26 26 25 25 25 25 24 24 25 26 26 26 26 25 26 25 24 22
19 19 19 25 30 30 28 27 32 37 34 29 30 36 36 32 32 30 21 20 19 13 16 26 30 26 23 22 23 24 23 23 23 24 25 24 23 22 21 22 21 20 19 19 19 19 20 21 21 20 19 19 19 21 22 21 21 20 20 20 21 22 23 22 23 24 26 26 26 26 26 26 26 26 26 26 26 27 27 27 26 27 27 26 25 24
17 18 18 23 27 27 26 25 28 35 39 36 29 27 31 30 31 33 24 15 15 12 12 23 30 28 25 23 23 26 28 27 26 27 27 25 24 22 22 22 21 20 22 21 18 20 22 23 23 22 20 19 19 20 22 22 21 21 21 21 22 22 22 22 23 25 26 26 26 26 26 27 28 27 27 27 28 28 28 28 27 28 28 28 26 26
18 17 17 19 23 23 26 29 30 32 38 41 35 29 31 32 32 34 29 21 18 13 11 18 23 23 26 27 25 24 27 28 28 30 29 26 25 23 22 22 20 17 19 20 19 22 24 25 26 25 22 21 20 20 21 22 22 23 23 23 23 23 23 24 24 25 26 26 26 26 27 28 29 28 28 29 29 29 29 29 29 29 30 29 29 29
20 18 17 18 22 25 28 33 34 32 34 40 42 37 32 31 31 31 31 33 27 15 10 12 15 20 27 27 23 22 23 24 25 28 29 27 27 25 20 22 23 19 17 15 14 18 23 24 25 25 23 22 22 21 22 23 24 25 25 24 24 24 24 25 25 25 26 25 25 26 27 29 29 29 29 29 30 30 30 30 30 31 32 32 31 31
24 19 18 19 23 28 31 32 32 32 31 34 40 42 36 29 28 25 23 31 33 23 18 14 11 19 27 25 23 22 22 22 22 24 26 25 24 22 18 18 22 22 21 16 12 14 18 21 23 24 25 25 24 24 24 24 25 27 27 25 25 25 25 24 25 25 25 25 25 26 27 28 28 29 29 30 30 31 31 31 32 32 33 34 33 32
27 21 19 21 23 24 25 27 29 30 30 31 34 40 40 34 30 25 18 23 29 29 30 25 18 19 22 20 20 21 24 25 23 22 22 22 21 20 19 18 18 22 24 18 16 16 16 18 22 24 26 27 27 26 25 24 25 28 28 26 26 27 25 25 25 24 24 24 24 25 25 27 28 29 29 30 30 30 31 32 33 33 34 35 35 34
28 25 22 22 22 22 21 23 27 27 29 32 33 34 40 40 37 31 24 25 28 29 30 25 19 22 25 21 18 18 20 24 25 24 23 21 21 20 20 17 17 23 26 19 18 17 14 15 21 25 27 29 30 29 27 26 27 28 29 28 27 27 25 25 25 24 24 24 23 24 25 26 28 28 29 29 29 29 30 31 33 33 34 35 36 36
29 28 25 20 16 18 19 19 24 29 30 33 34 33 37 41 41 37 32 29 27 29 31 23 17 23 28 26 25 20 17 22 25 26 26 25 23 22 20 17 18 23 25 20 20 18 14 14 17 23 27 30 32 31 29 27 27 28 29 28 27 27 26 26 26 26 25 24 23 24 25 26 27 27 27 27 27 27 27 30 32 31 32 34 36 37
27 29 28 23 15 14 16 17 22 29 30 30 32 34 35 37 39 39 37 33 27 26 33 30 24 25 25 25 28 24 17 19 22 22 24 25 25 25 22 18 18 23 24 22 22 20 18 16 16 20 26 29 32 32 31 29 28 28 28 28 28 28 27 27 27 27 26 25 25 25 25 26 26 26 25 25 25 25 26 29 30 31 31 33 35 37
22 27 31 31 25 21 20 20 21 24 27 28 30 33 34 34 35 38 39 38 32 27 32 35 30 28 27 27 30 30 25 21 20 20 20 21 23 26 26 23 22 25 25 23 21 20 21 20 18 18 24 29 31 33 32 30 28 28 28 28 29 28 28 28 28 28 27 26 27 27 27 27 27 26 26 25 25 26 27 28 29 31 33 34 36 37
19 25 29 32 32 29 26 23 21 23 26 27 27 30 33 33 34 37 38 38 36 29 29 33 32 32 34 33 30 31 31 29 27 26 25 24 22 22 24 25 26 27 26 24 22 20 21 22 22 19 21 27 32 34 33 31 29 29 29 28 28 28 28 28 29 29 27 26 27 28 28 28 27 27 27 26 26 27 28 28 29 31 34 36 37 37
20 22 25 28 30 31 31 28 25 25 27 27 27 28 30 32 34 37 38 37 37 33 30 30 31 32 36 37 35 31 29 30 30 29 28 26 24 23 23 24 26 27 26 25 22 19 19 21 23 22 21 25 31 35 34 32 31 30 29 28 28 29 28 28 29 29 27 26 27 28 27 27 27 26 27 27 27 28 29 29 30 32 34 37 37 36
23 24 23 24 27 28 31 32 30 29 29 29 30 31 31 32 34 37 37 37 38 39 35 31 31 32 32 34 38 38 33 28 26 25 27 28 27 26 25 24 25 25 26 28 29 23 19 19 22 24 24 24 28 34 36 33 31 30 29 28 28 29 29 28 28 27 26 25 25 26 26 26 26 26 27 29 29 30 31 31 31 33 35 37 38 38
27 27 24 25 28 27 28 31 32 33 33 32 32 33 33 32 33 36 38 38 38 38 37 36 36 34 31 29 32 38 40 35 28 24 25 27 28 27 26 25 25 24 24 28 31 28 22 20 20 23 27 26 26 32 35 33 30 30 30 29 28 29 29 27 25 25 24 24 25 26 26 26 27 28 30 31 31 31 32 32 32 33 36 38 38 39
29 27 24 24 27 28 27 28 30 33 35 36 37 36 35 34 34 35 36 36 36 36 35 37 39 37 32 28 27 31 37 41 39 34 28 25 25 25 25 25 26 26 25 26 29 28 25 24 21 22 27 29 28 31 34 32 31 31 31 30 29 29 28 26 25 24 25 26 27 28 28 28 29 30 30 30 31 31 32 32 32 34 36 37 37 39
29 27 25 24 25 28 27 26 29 29 27 32 40 41 37 36 36 36 35 35 36 36 35 36 38 35 32 31 31 30 32 37 41 43 41 37 34 31 30 29 29 28 26 27 32 30 26 26 25 24 28 30 29 31 34 33 33 33 32 32 30 29 29 28 27 27 28 28 29 30 30 30 29 29 28 29 29 30 30 31 32 33 34 35 36 39
31 27 26 26 25 25 24 25 26 22 20 27 35 36 36 36 36 37 37 37 35 35 36 36 36 33 31 32 34 35 35 34 36 40 43 44 44 42 41 39 38 36 31 30 34 33 31 34 32 27 29 31 30 33 37 36 35 34 33 33 32 31 31 30 30 30 30 30 30 30 30 29 27 27 27 27 28 29 29 31 32 33 34 35 37 39
33 28 26 27 26 23 22 23 20 18 22 26 26 27 32 34 34 35 36 37 37 36 36 35 34 33 32 32 33 34 35 36 37 37 39 41 42 43 43 43 44 43 37 35 37 36 34 37 33 29 30 32 32 37 39 37 36 36 35 35 34 34 33 33 33 33 31 31 30 29 28 27 26 27 27 28 28 28 29 30 31 31 32 34 35 37
28 28 25 26 25 20 20 21 17 15 20 21 19 19 22 22 23 24 27 30 32 33 35 36 34 32 31 31 31 31 30 31 35 37 38 39 39 39 41 43 43 43 40 41 47 45 41 38 33 29 29 30 33 39 41 39 38 38 38 37 36 36 36 35 35 33 31 30 29 28 27 27 26 27 28 27 27 26 26 26 27 27 28 30 33 35
24 25 24 24 23 21 22 24 22 19 19 17 14 11 9 11 13 14 20 27 30 27 28 32 34 33 32 31 30 28 26 26 30 34 35 35 35 35 36 37 37 37 38 43 48 45 41 38 34 30 28 29 34 41 43 42 42 41 39 38 38 37 37 36 35 34 32 30 29 28 27 27 26 26 26 25 23 22 21 22 24 24 27 30 33 36
25 25 24 22 21 21 22 21 18 17 15 13 11 7 5 8 10 10 17 27 32 28 24 25 28 31 32 32 31 29 29 30 32 32 31 30 31 32 35 36 35 33 38 47 48 42 39 37 34 31 29 29 34 42 45 43 42 41 40 39 39 39 38 37 35 34 32 31 29 28 27 26 25 24 23 22 20 19 19 20 22 24 27 31 34 36
28 27 25 23 21 21 22 18 15 15 14 15 15 10 5 6 11 11 15 21 26 29 31 31 29 27 27 30 31 31 32 35 36 33 30 28 28 29 33 38 39 39 43 48 46 40 38 38 34 31 30 29 33 40 44 44 42 41 40 39 39 38 37 36 35 34 32 31 29 28 27 25 24 23 22 20 18 18 18 20 23 25 27 31 34 36
33 30 29 29 26 24 23 21 18 18 16 16 18 14 7 6 10 12 13 14 16 22 29 35 36 33 29 26 26 30 33 36 36 33 29 28 28 28 31 34 37 41 45 46 41 36 36 37 35 32 30 29 31 38 43 44 43 40 39 38 37 37 36 35 35 34 32 31 29 28 27 25 24 22 21 20 19 19 20 22 24 27 28 30 33 35
36 34 33 33 31 28 25 23 22 20 17 16 19 17 12 11 12 13 15 15 14 16 21 27 33 37 36 31 27 29 32 32 32 31 29 27 27 30 33 34 35 38 42 43 40 37 36 37 36 34 30 28 31 38 43 44 42 40 38 37 37 36 35 35 34 33 32 30 29 28 27 26 25 23 22 21 20 21 22 24 27 29 30 30 32 33
35 34 32 33 33 31 29 26 24 21 18 18 18 17 15 15 15 15 17 19 20 21 20 21 24 30 34 34 33 33 32 29 28 29 29 28 28 32 34 35 36 38 41 42 41 39 38 39 38 36 31 28 31 38 43 43 42 40 38 38 37 37 36 34 32 31 29 28 27 27 27 26 24 23 22 21 21 23 25 28 30 31 31 31 32 33
35 33 31 31 30 27 28 26 20 17 18 19 17 16 19 20 18 18 18 19 23 24 23 23 24 25 28 30 30 33 36 31 25 27 32 34 37 40 40 37 36 35 38 41 41 41 41 41 39 36 31 29 33 40 44 43 42 40 40 39 38 37 34 31 29 27 26 26 27 28 27 25 23 22 22 23 24 26 28 29 30 31 31 31 31 32
30 31 30 29 28 26 26 24 17 14 15 17 16 18 23 26 26 25 23 22 24 26 26 27 28 28 29 28 26 27 32 31 28 34 39 39 41 46 47 44 40 36 35 37 38 39 42 42 39 35 32 31 35 42 44 44 43 42 41 39 37 35 32 29 27 24 25 27 27 26 24 23 22 22 23 25 26 27 27 28 29 31 32 31 31 32
21 25 24 23 25 25 22 18 14 11 11 13 15 19 24 28 30 30 29 28 28 27 28 27 28 29 31 28 23 20 22 26 31 36 37 34 35 42 44 42 41 38 34 34 36 39 41 40 38 35 33 34 39 44 45 43 41 41 39 37 35 33 30 28 27 27 28 28 25 23 23 23 24 24 24 25 26 27 27 28 30 32 32 32 31 31
16 19 18 15 17 19 18 16 13 12 11 11 14 17 19 25 30 31 30 30 28 27 27 25 23 23 24 21 18 17 17 20 24 28 28 26 29 35 37 37 37 36 33 33 36 37 36 35 34 34 35 39 43 45 43 40 37 37 36 35 32 29 26 26 27 30 30 27 23 23 24 24 25 25 25 26 26 27 28 29 32 33 32 31 31 30
14 15 16 15 14 15 14 12 12 12 12 12 14 16 17 21 26 27 27 26 23 21 21 17 12 11 12 10 10 12 12 14 17 20 22 22 21 22 24 26 29 31 31 30 30 29 29 30 32 34 38 42 43 41 39 38 36 34 32 30 27 24 25 27 29 29 27 25 23 24 24 25 25 25 26 27 27 28 29 31 32 32 31 31 30 28
14 14 14 14 14 13 12 12 14 16 15 14 14 16 16 17 21 23 25 26 21 13 9 8 6 6 7 8 8 9 10 12 15 17 19 20 19 19 19 20 23 27 30 30 30 31 32 34 36 37 39 40 40 38 36 34 31 28 26 25 25 26 26 27 27 27 27 25 24 24 24 25 26 26 28 30 29 29 30 32 31 31 30 29 27 25
13 14 12 9 10 12 11 12 14 16 16 15 14 13 13 13 16 20 22 24 20 13 14 14 12 11 10 10 11 13 13 14 15 17 18 19 20 21 22 22 25 29 32 33 33 33 34 34 35 35 35 35 35 33 31 29 26 25 25 25 25 26 27 28 30 31 30 27 26 25 25 26 27 29 30 31 30 29 31 32 30 29 28 26 25 24
9 11 9 5 6 9 10 13 14 13 14 16 15 13 12 12 14 18 19 18 17 18 21 22 18 15 16 17 17 19 19 19 20 19 19 21 23 24 26 28 30 32 33 33 32 32 32 32 31 31 31 30 30 29 28 26 25 25 25 25 26 27 29 30 30 31 30 28 27 27 27 27 28 29 30 31 30 30 30 31 29 27 26 25 24 24
8 8 7 5 5 5 6 12 16 16 15 18 18 16 15 14 14 16 17 17 20 18 19 22 23 21 22 23 24 25 25 25 27 27 28 29 30 29 29 30 30 30 30 30 29 28 28 26 25 25 25 25 25 24 23 21 20 20 19 20 22 23 24 24 24 24 26 27 27 27 28 28 28 28 28 29 29 30 30 29 27 26 24 23 24 25
Wind_Direction
204 208 211 213 213 211 212 214 217 221 224 228 227 221 219 226 229 223 215 200 197 208 210 210 211 213 210 198 196 199 198 200 201 201 201 202 206 209 213 214 216 224 228 225 224 223 224 223 222 223 223 223 222 221 222 221 221 222 224 224 226 227 225 225 228 230 228 227 230 230 228 229 230 231 232 234 235 238 245 248 251 252 255 263 262 260
203 213 216 214 214 213 214 216 218 222 226 231 232 226 220 225 230 224 219 204 194 205 212 212 215 214 214 208 203 203 203 203 204 204 204 204 206 210 214 216 218 223 225 225 228 227 226 226 226 226 227 227 227 228 228 228 227 227 228 230 231 231 231 230 232 234 230 225 224 221 218 220 224 229 231 235 237 238 243 248 252 252 252 256 257 257
206 217 218 214 216 216 217 218 219 223 226 230 233 232 224 221 227 227 218 202 192 200 213 215 218 218 215 212 209 207 208 209 208 207 207 206 207 210 215 218 219 223 223 222 229 231 228 228 229 229 231 231 231 232 231 230 229 230 231 233 235 235 234 232 233 234 230 225 221 216 215 215 219 226 228 230 235 237 243 249 251 251 249 248 252 256
210 218 216 213 216 217 218 219 219 223 225 228 230 232 231 222 222 225 212 192 188 197 212 218 221 223 220 216 214 212 212 212 211 211 212 212 214 213 214 219 222 226 226 224 228 234 232 231 232 232 233 233 234 234 233 232 232 233 235 237 237 238 236 233 233 233 230 226 220 216 215 215 217 223 226 228 233 237 243 247 248 250 250 249 251 252
218 219 214 211 215 216 217 218 217 220 223 226 227 228 231 223 219 223 205 187 200 213 219 223 225 225 223 218 215 214 214 214 215 215 215 217 219 218 215 219 226 229 229 228 230 233 233 232 235 237 237 236 237 238 237 236 236 237 238 238 236 236 236 234 232 231 231 227 222 219 217 216 217 222 225 227 230 234 237 240 245 250 248 244 241 236
224 218 212 211 213 215 216 218 217 217 221 225 225 225 229 227 221 225 212 196 212 226 221 220 227 228 223 221 219 216 215 216 216 216 218 218 219 222 221 220 224 227 228 230 232 234 234 233 235 238 239 239 239 240 239 238 238 238 239 237 234 233 233 233 231 230 230 228 224 221 220 218 218 222 225 223 224 228 231 233 236 240 234 224 218 214
224 217 214 213 212 214 215 218 218 217 222 225 223 222 226 232 230 229 226 214 216 224 218 216 227 236 225 221 221 220 220 218 217 217 220 221 220 224 229 229 228 228 229 232 233 233 234 233 233 236 239 239 239 240 239 237 236 237 237 235 233 232 231 232 232 229 229 228 225 222 221 220 219 222 223 221 220 220 222 224 221 220 215 203 199 198
221 216 215 213 210 213 215 218 217 215 222 226 222 220 223 231 234 235 236 230 223 225 221 218 227 238 235 226 222 222 223 219 218 220 219 221 224 228 233 236 237 235 233 237 238 233 233 234 234 236 237 236 237 238 237 236 235 236 235 233 231 230 230 232 232 230 229 227 225 221 220 219 216 218 220 219 220 218 214 212 207 204 203 194 190 188
217 216 213 209 210 215 215 215 214 212 221 225 223 224 224 227 232 237 240 237 230 228 226 222 224 234 239 231 224 222 223 220 219 219 218 220 223 228 234 235 238 242 240 240 244 239 236 239 239 237 236 233 232 234 234 234 235 234 232 229 228 228 229 232 232 230 229 226 223 220 218 217 214 215 217 218 220 217 207 200 197 197 197 191 187 182
220 218 213 212 213 216 216 213 213 214 221 225 226 231 232 228 226 232 239 241 237 234 232 227 222 230 241 231 223 221 221 221 219 218 218 220 222 227 233 233 233 240 244 242 244 245 241 241 243 240 237 232 227 229 230 230 231 231 228 225 225 227 229 231 231 230 229 225 221 218 217 215 214 215 215 215 216 208 199 196 195 195 195 193 187 182
225 218 214 217 215 214 215 215 217 219 222 225 227 232 237 238 230 230 236 238 238 233 231 230 225 227 239 232 224 221 221 220 218 217 216 219 226 228 229 230 229 232 241 245 244 245 243 240 242 240 237 232 225 225 226 224 225 226 224 223 223 225 228 229 229 228 227 224 219 217 216 215 215 215 214 214 211 201 197 198 198 198 199 198 194 190
225 219 213 218 218 214 215 219 220 219 220 222 224 227 230 236 235 232 232 232 237 237 231 231 227 227 233 231 223 221 223 222 217 217 216 217 227 233 232 233 230 228 235 242 242 242 242 239 237 236 233 229 223 222 224 221 221 222 221 220 221 223 225 227 227 226 225 222 218 216 216 215 214 215 214 215 210 202 201 204 204 204 206 205 205 205
223 224 217 216 218 214 213 217 217 214 215 216 219 221 221 223 226 226 227 225 229 237 236 231 228 231 234 232 229 225 225 224 218 217 218 216 221 232 240 243 241 230 230 237 239 238 242 241 238 236 233 228 223 223 224 221 220 220 219 218 219 221 223 225 225 224 222 220 217 216 215 214 214 215 215 213 211 207 207 210 210 211 213 214 215 216
219 223 220 215 216 214 211 213 211 208 210 212 213 215 215 217 219 216 220 227 227 230 234 233 235 239 236 233 233 229 225 225 220 214 216 219 219 226 239 249 253 243 230 233 235 234 243 246 241 240 237 232 228 227 228 225 222 222 220 219 219 220 222 223 223 222 221 218 217 215 215 214 215 216 216 213 212 212 213 215 216 218 219 221 224 227
215 218 216 213 213 211 210 212 212 208 209 212 212 213 216 216 220 221 214 222 231 232 231 230 230 235 235 235 231 225 223 223 220 213 212 220 220 218 231 248 254 249 229 225 225 229 242 246 242 241 241 239 235 233 234 232 227 226 224 222 221 221 221 221 220 220 218 216 216 215 214 215 216 217 216 214 215 217 217 218 220 222 224 227 232 235
222 226 219 213 212 211 210 211 211 211 212 211 210 216 220 217 222 235 232 226 231 236 234 230 230 230 233 238 227 216 219 220 219 214 213 219 222 220 228 242 252 253 234 214 214 224 234 238 238 237 239 240 238 236 236 235 231 228 226 223 221 221 221 220 219 218 216 216 216 216 215 216 218 219 218 217 218 220 221 223 224 225 227 231 236 239
222 230 222 212 211 212 212 210 209 212 214 208 209 218 222 219 224 235 241 234 233 238 232 232 236 231 227 233 227 214 214 215 216 217 219 224 226 225 225 227 241 249 233 211 209 221 230 234 235 232 233 238 238 237 236 236 234 231 226 221 219 220 220 219 219 218 216 216 217 217 218 219 220 220 220 220 221 222 224 226 226 228 231 234 238 241
225 233 221 210 212 212 211 213 212 214 216 211 212 218 219 221 226 231 238 235 232 239 231 231 238 232 222 224 224 220 215 213 216 218 222 227 227 226 225 227 240 245 228 212 208 216 228 234 234 231 232 236 237 238 239 238 235 231 226 220 217 220 219 219 219 219 218 219 219 220 221 222 223 222 222 222 223 225 226 228 229 231 235 239 242 245
226 235 227 210 212 210 203 209 214 215 218 220 221 217 212 215 221 224 229 232 230 236 231 232 237 234 226 222 222 224 219 214 216 217 220 226 225 223 221 227 241 237 224 219 213 213 225 234 236 232 229 232 235 236 237 238 235 231 226 220 217 219 220 221 221 221 221 221 222 223 224 226 227 225 225 225 226 228 229 231 232 234 238 243 247 252
220 227 232 212 203 202 199 206 213 212 213 220 226 223 215 217 220 220 223 228 234 237 231 232 236 235 232 225 220 223 219 215 219 221 221 223 225 224 220 223 233 234 231 231 223 219 224 231 236 234 229 229 232 233 234 236 233 230 227 221 218 219 220 221 221 222 224 224 225 226 226 228 229 229 229 229 230 233 234 236 238 239 243 248 252 257
219 216 228 214 194 198 207 207 210 212 207 210 219 222 218 217 220 222 222 223 229 240 239 232 233 234 234 228 220 218 217 217 222 222 218 218 224 227 221 220 226 236 250 253 241 229 226 227 232 233 230 228 230 231 232 234 233 230 227 223 219 219 220 222 223 223 225 226 227 228 229 230 232 233 234 234 236 238 239 241 243 245 248 253 257 261
218 212 220 216 196 201 214 213 211 215 212 209 213 218 220 217 214 219 222 220 222 232 239 242 242 231 229 229 225 219 218 221 221 218 212 212 219 221 222 224 223 231 249 263 271 252 230 225 229 231 231 229 231 234 231 230 231 230 228 224 219 219 220 222 225 225 225 227 229 230 231 233 235 237 238 240 241 243 244 247 249 250 252 258 263 265
217 217 219 221 214 211 217 218 216 218 220 219 216 216 220 221 218 220 222 218 220 226 232 240 248 234 223 224 223 218 219 221 217 210 206 207 211 218 231 231 220 231 244 257 280 273 241 228 227 227 230 230 233 238 233 229 230 231 230 225 220 220 220 221 226 227 226 228 230 232 232 234 236 238 240 242 245 247 249 251 254 255 256 261 266 267
212 221 221 222 229 228 221 218 220 218 219 223 222 216 218 221 222 224 225 222 224 226 226 232 239 233 230 232 230 221 217 218 215 209 207 211 215 224 236 231 225 236 240 251 278 277 252 236 229 226 231 230 229 235 235 230 230 231 230 227 224 224 222 223 226 227 228 229 230 232 233 235 237 239 241 244 247 250 252 254 257 259 260 263 266 268
206 215 219 219 226 226 217 212 213 211 211 219 221 217 218 220 220 224 228 228 230 228 226 231 235 231 231 232 235 233 220 215 216 215 217 222 225 229 234 235 236 233 233 252 277 275 265 256 238 231 233 230 227 231 234 232 231 233 232 229 227 226 223 224 227 230 231 230 230 232 233 235 238 241 243 245 248 251 253 257 261 264 263 264 267 269
208 210 213 217 219 212 209 208 207 206 207 214 220 220 220 220 218 221 226 229 231 228 229 236 238 232 228 223 226 230 219 209 212 215 221 225 227 229 231 236 238 230 234 257 274 276 276 270 249 236 235 231 227 229 232 233 233 234 233 230 228 226 223 224 227 231 232 230 231 234 236 237 240 244 246 247 248 250 253 259 265 267 265 264 266 271
220 216 212 218 223 221 217 216 211 209 211 213 218 222 223 221 218 220 225 229 231 230 232 237 239 239 238 229 224 224 219 215 215 217 225 230 230 228 228 234 237 234 242 259 269 274 278 276 265 248 236 232 228 228 230 231 232 234 233 229 226 225 224 224 226 232 234 231 232 236 238 240 242 245 248 249 250 251 255 260 264 267 268 267 268 272
224 225 218 217 223 228 230 229 220 219 223 220 216 219 222 223 221 221 225 228 230 231 234 235 233 238 242 240 234 228 223 223 226 231 237 239 233 223 222 232 238 237 247 260 265 270 274 273 271 260 244 235 229 227 228 228 227 230 233 229 224 224 226 225 225 232 235 233 232 235 238 240 242 245 247 249 251 252 256 260 263 267 269 272 274 275
221 227 221 216 222 229 235 240 233 228 231 230 225 225 224 224 226 227 228 229 230 233 237 235 231 233 236 237 239 238 231 225 229 236 238 232 227 222 222 233 241 244 252 257 258 266 271 267 263 261 256 244 232 229 227 224 222 227 231 228 221 222 226 226 227 232 234 232 231 233 237 240 242 244 246 249 252 254 258 262 264 266 268 272 275 277
219 226 223 223 230 231 232 239 238 235 235 232 230 232 229 226 228 230 232 232 232 235 239 238 237 236 234 233 235 238 239 233 229 231 231 226 225 227 227 232 240 247 255 257 253 256 268 268 259 256 257 251 240 232 226 223 222 226 230 227 221 221 224 227 228 230 232 232 232 234 238 239 242 245 247 251 255 258 261 263 265 266 267 270 273 276
218 226 225 228 239 239 232 234 236 236 238 237 233 233 232 231 230 230 232 233 234 236 238 239 240 240 236 233 231 232 237 241 237 229 226 225 226 228 230 232 235 240 251 258 252 249 259 270 265 254 250 251 247 235 226 222 222 224 227 226 223 223 225 228 230 231 233 234 235 238 240 240 242 246 249 252 257 261 263 265 265 266 267 270 272 275
214 222 225 226 236 240 235 234 236 235 237 240 239 235 233 232 232 231 231 231 233 235 236 238 241 240 235 234 232 230 232 238 241 236 230 227 224 226 230 234 237 238 244 255 253 249 258 268 268 258 248 248 248 235 223 219 219 222 224 224 223 223 225 228 230 231 233 234 236 239 240 242 244 248 253 256 259 262 265 266 266 266 269 272 273 275
212 216 219 220 230 236 234 234 238 237 236 237 236 234 235 235 234 234 233 231 232 233 234 236 239 241 238 236 235 233 230 233 237 236 236 236 234 235 238 239 242 239 241 253 254 250 258 269 273 266 249 246 246 231 219 216 218 219 221 222 222 222 223 225 228 229 231 233 235 238 240 243 247 252 257 259 261 264 265 266 268 268 270 271 272 274
212 212 217 221 230 235 232 232 236 237 237 237 234 233 237 239 240 240 237 234 234 234 235 238 240 242 241 237 236 236 234 234 235 236 239 240 241 243 243 243 244 242 243 252 250 246 259 270 273 267 248 242 239 225 216 216 217 218 221 222 222 223 225 227 228 229 230 232 235 238 240 244 249 253 257 258 260 263 264 266 269 269 270 271 272 274
210 210 216 222 227 233 232 229 232 233 236 240 241 236 235 240 246 250 248 241 236 236 239 241 241 240 239 238 238 237 236 238 238 239 241 242 242 243 242 242 243 241 243 248 242 244 261 269 266 259 247 239 231 220 215 216 216 217 221 223 224 226 228 229 230 229 230 232 235 238 242 246 249 251 253 255 257 259 261 264 266 267 270 272 273 275
208 207 213 218 221 227 227 225 230 240 241 244 245 235 233 241 247 257 262 251 240 238 241 242 243 242 240 239 239 239 238 238 240 241 242 242 242 242 241 241 241 241 244 246 241 244 259 265 259 254 248 239 227 219 216 216 215 216 219 221 224 226 228 229 229 228 229 232 235 238 242 245 246 247 249 251 253 256 259 262 265 267 270 272 274 276
210 206 210 215 216 218 224 229 236 245 245 242 235 218 217 235 238 250 262 250 239 240 243 243 244 244 243 241 239 239 238 238 241 241 239 238 239 239 239 238 238 239 240 238 239 245 254 256 254 252 247 239 227 218 216 216 216 216 219 221 223 225 227 228 228 227 228 231 234 236 239 241 243 245 247 249 252 255 259 263 268 271 274 275 275 276
216 213 212 216 217 217 224 231 236 237 231 221 214 191 186 227 232 247 260 248 240 244 252 253 250 247 245 244 241 238 239 240 242 240 235 235 236 236 236 235 233 233 233 233 239 247 249 248 250 251 248 241 229 220 218 219 218 217 219 221 224 225 227 227 227 226 227 228 231 234 238 241 243 244 246 249 253 257 262 269 275 280 282 280 277 277
219 217 215 219 220 216 219 226 231 232 227 222 222 213 197 221 221 230 255 254 243 243 247 251 253 250 247 244 241 238 238 239 240 238 235 237 239 238 239 236 231 229 231 234 238 242 242 244 249 249 248 243 231 223 221 220 220 221 222 223 225 226 226 226 225 224 224 226 231 238 242 244 245 246 248 252 258 265 275 282 287 291 290 283 279 280
215 213 213 218 220 217 220 228 232 234 234 229 224 218 209 222 221 221 238 244 234 232 235 239 241 244 246 247 243 239 237 238 240 239 239 243 244 239 239 238 234 231 232 234 236 237 239 244 246 246 248 245 231 222 221 221 221 222 223 225 226 225 224 223 222 222 225 229 236 243 246 246 246 247 251 257 267 279 288 292 296 298 294 285 282 284
211 212 212 215 218 218 220 226 232 236 235 226 222 224 227 231 232 230 233 235 231 227 230 233 235 237 240 243 242 239 238 242 244 241 242 248 245 236 236 239 235 232 233 235 237 237 239 243 245 245 246 242 228 221 221 221 220 219 222 224 223 221 219 220 221 224 229 234 240 245 247 247 248 251 257 266 277 287 294 298 300 300 295 287 284 287
205 208 212 215 218 219 219 225 234 240 232 218 216 221 222 223 232 238 237 239 242 237 235 239 240 238 237 239 240 236 234 242 249 244 243 248 244 236 239 242 237 233 234 235 236 236 238 241 243 242 240 236 226 219 217 217 215 216 218 218 217 216 216 218 221 225 229 236 243 247 247 247 251 256 265 275 285 292 297 300 300 299 295 290 286 288
202 203 208 212 213 215 219 223 231 235 223 210 204 209 217 226 237 242 239 246 253 251 248 248 249 246 243 242 243 238 232 235 242 238 235 239 241 240 243 245 242 237 235 235 236 236 237 239 239 236 234 229 220 214 211 210 209 210 212 212 212 212 213 215 218 223 232 242 246 247 247 250 255 263 273 284 291 295 298 299 298 297 295 290 286 288
203 205 210 212 210 213 219 221 225 230 217 202 199 212 226 236 244 248 254 264 269 265 260 255 251 253 255 256 258 251 239 233 233 233 231 235 240 243 243 244 245 243 238 237 238 237 236 236 235 232 227 222 216 210 208 207 207 207 208 209 210 210 212 214 219 229 242 247 246 245 249 255 263 274 283 290 294 296 297 297 297 297 295 290 286 288
201 208 215 216 210 212 218 217 212 203 184 184 205 222 231 239 247 253 261 270 274 272 270 265 258 258 264 267 268 261 244 234 233 233 231 231 238 244 244 244 246 246 242 238 236 235 234 234 232 229 224 216 209 205 203 203 204 205 206 207 209 210 213 218 229 242 250 247 245 251 260 267 276 285 291 294 296 296 296 297 298 297 294 288 286 288
200 207 216 217 205 206 220 225 214 195 181 193 221 231 234 242 249 253 259 267 274 276 274 270 265 266 272 274 269 260 246 234 231 231 228 231 242 250 250 248 246 244 239 235 233 234 234 231 226 222 215 205 199 197 196 195 196 200 203 204 206 210 220 231 242 248 248 245 250 264 273 280 287 292 295 295 295 295 296 297 298 296 292 288 288 289
204 203 211 216 206 201 210 213 206 203 201 206 222 231 237 247 254 258 262 267 272 272 268 265 262 263 266 261 252 248 232 212 212 219 222 226 235 243 243 239 236 233 229 226 224 221 215 208 203 200 197 193 190 190 192 193 194 198 202 205 212 224 236 243 246 246 246 251 264 276 282 288 292 294 294 294 294 295 296 296 295 292 289 287 288 289
210 200 203 214 210 198 189 187 200 216 220 219 227 233 238 250 259 261 262 261 257 248 232 217 199 204 218 211 199 197 187 179 184 194 200 205 212 219 219 213 211 213 211 204 197 192 188 186 186 185 185 186 185 187 189 192 195 201 209 219 230 238 242 245 247 248 253 264 276 282 285 289 291 293 293 294 294 295 294 293 291 288 286 285 287 287
206 199 201 213 210 201 194 194 206 218 218 218 226 229 230 245 259 259 254 248 238 206 168 157 149 141 144 153 161 165 162 158 165 176 185 194 203 207 204 193 186 188 187 180 174 174 174 175 177 179 180 183 185 187 190 195 204 216 226 235 244 250 253 258 260 259 261 270 279 282 284 289 291 291 292 294 294 293 291 289 286 284 283 286 289 287
200 198 204 215 210 202 194 189 191 194 196 202 203 204 214 230 244 251 246 226 204 188 176 170 167 167 166 162 162 168 167 160 160 165 168 169 170 170 167 163 162 165 166 163 163 166 169 172 175 178 180 184 188 192 197 204 214 224 230 237 246 253 258 261 261 261 265 273 279 282 286 288 289 289 291 293 293 289 286 283 281 280 282 286 288 283
213 212 210 207 203 197 182 184 189 191 197 202 200 200 212 214 214 231 232 196 170 171 180 175 167 165 165 161 160 163 161 155 154 155 152 151 151 151 151 154 156 157 158 159 161 166 169 171 175 179 183 187 192 198 205 213 221 228 235 241 248 253 257 260 264 269 274 278 281 285 288 288 287 288 290 290 287 283 280 278 277 279 282 283 281 276
Height
3142 3143 3142 3141 3142 3145 3147 3149 3151 3152 3152 3152 3151 3152 3154 3155 3155 3156 3158 3159 3161 3163 3164 3166 3167 3168 3169 3169 3170 3171 3172 3173 3174 3174 3175 3176 3176 3177 3177 3178 3178 3179 3180 3181 3182 3183 3184 3185 3186 3187 3188 3189 3190 3191 3192 3193 3195 3196 3197 3197 3198 3199 3200 3200 3201 3202 3203 3204 3204 3205 3206 3207 3207 3208 3208 3209 3209 3209 3209 3209 3208 3209 3209 3209 3209 3209
3140 3139 3137 3139 3142 3145 3147 3149 3151 3152 3151 3151 3149 3149 3151 3153 3154 3154 3155 3156 3159 3161 3162 3164 3165 3166 3167 3168 3169 3169 3170 3171 3172 3173 3173 3174 3175 3175 3176 3176 3177 3177 3179 3180 3180 3181 3182 3183 3184 3185 3186 3187 3188 3189 3191 3192 3193 3194 3195 3196 3197 3198 3198 3199 3200 3201 3202 3202 3203 3204 3205 3206 3206 3207 3207 3208 3208 3208 3208 3207 3208 3208 3208 3208 3208 3208
3136 3134 3135 3139 3142 3145 3146 3148 3149 3150 3150 3149 3148 3146 3147 3150 3152 3151 3151 3153 3156 3158 3160 3162 3163 3163 3165 3166 3167 3167 3168 3169 3170 3171 3171 3172 3173 3173 3174 3174 3175 3175 3176 3177 3177 3178 3179 3180 3182 3182 3183 3185 3186 3188 3189 3190 3191 3192 3193 3194 3195 3196 3197 3198 3198 3199 3201 3201 3202 3203 3203 3204 3205 3205 3206 3206 3207 3207 3207 3207 3207 3207 3207 3207 3207 3207
3130 3130 3134 3139 3141 3143 3144 3145 3147 3148 3148 3147 3146 3145 3144 3147 3149 3147 3148 3152 3154 3157 3159 3161 3161 3162 3163 3163 3164 3165 3166 3167 3168 3169 3170 3170 3170 3171 3172 3172 3173 3173 3174 3175 3175 3175 3177 3178 3179 3180 3181 3183 3184 3185 3186 3188 3189 3190 3192 3193 3194 3194 3195 3196 3197 3198 3199 3200 3201 3201 3202 3203 3204 3204 3204 3205 3205 3206 3206 3206 3206 3206 3206 3206 3206 3206
3128 3130 3133 3137 3138 3140 3141 3142 3144 3144 3144 3144 3144 3144 3143 3144 3145 3146 3148 3151 3154 3156 3158 3159 3160 3159 3159 3160 3161 3162 3164 3164 3165 3166 3167 3168 3168 3169 3170 3171 3170 3171 3171 3172 3172 3173 3174 3175 3176 3177 3178 3180 3181 3182 3184 3186 3187 3189 3190 3191 3192 3193 3194 3195 3196 3197 3198 3198 3199 3200 3201 3201 3202 3202 3203 3204 3204 3205 3205 3205 3205 3205 3205 3205 3205 3205
3127 3129 3131 3133 3135 3137 3138 3139 3140 3141 3142 3141 3141 3142 3143 3142 3142 3144 3145 3148 3152 3153 3154 3157 3157 3155 3156 3157 3158 3159 3161 3161 3162 3163 3164 3165 3166 3167 3167 3168 3168 3168 3169 3169 3170 3171 3172 3173 3174 3175 3176 3177 3179 3180 3182 3184 3185 3187 3188 3189 3190 3191 3192 3193 3194 3195 3196 3197 3197 3198 3199 3200 3201 3201 3202 3203 3204 3204 3204 3205 3205 3205 3205 3205 3205 3205
3124 3127 3129 3130 3132 3134 3135 3135 3137 3139 3139 3137 3138 3141 3142 3142 3142 3142 3142 3144 3147 3149 3151 3154 3153 3151 3152 3153 3155 3157 3158 3158 3159 3160 3161 3163 3164 3164 3164 3165 3165 3166 3166 3167 3167 3168 3169 3170 3171 3172 3173 3175 3176 3178 3180 3182 3183 3184 3186 3187 3188 3189 3190 3191 3192 3193 3194 3195 3196 3197 3198 3199 3199 3200 3201 3202 3202 3203 3203 3203 3203 3204 3204 3204 3204 3204
3120 3124 3125 3126 3129 3130 3131 3131 3133 3136 3136 3134 3136 3140 3141 3142 3141 3141 3140 3140 3143 3146 3149 3151 3151 3149 3149 3150 3152 3154 3154 3155 3156 3157 3158 3160 3161 3161 3162 3163 3163 3163 3164 3164 3165 3165 3166 3167 3168 3169 3170 3172 3175 3176 3178 3179 3180 3182 3183 3185 3186 3187 3188 3189 3190 3191 3192 3193 3194 3196 3197 3197 3198 3199 3199 3200 3200 3201 3202 3202 3202 3203 3203 3203 3203 3203
3118 3119 3121 3123 3125 3125 3125 3127 3131 3134 3133 3133 3136 3138 3138 3140 3141 3141 3139 3137 3140 3143 3144 3147 3149 3147 3145 3147 3149 3150 3150 3151 3152 3153 3155 3156 3158 3159 3160 3161 3161 3161 3161 3162 3162 3163 3164 3165 3166 3167 3168 3170 3172 3174 3175 3177 3178 3180 3181 3182 3184 3185 3186 3187 3188 3189 3190 3192 3193 3194 3195 3196 3197 3197 3198 3199 3199 3200 3200 3201 3201 3202 3202 3203 3203 3203
3116 3116 3119 3121 3121 3121 3123 3126 3130 3132 3131 3134 3136 3137 3136 3136 3137 3139 3136 3135 3138 3138 3138 3143 3146 3144 3142 3143 3145 3146 3146 3146 3148 3150 3152 3153 3155 3156 3157 3159 3160 3159 3159 3159 3160 3161 3162 3163 3164 3165 3167 3168 3170 3171 3172 3174 3176 3177 3179 3180 3181 3182 3184 3185 3186 3187 3189 3190 3191 3192 3193 3194 3195 3196 3196 3197 3198 3198 3199 3200 3200 3201 3201 3202 3202 3202
3113 3115 3117 3117 3117 3119 3123 3125 3127 3129 3131 3134 3136 3135 3134 3132 3133 3135 3135 3136 3134 3130 3132 3138 3140 3141 3138 3138 3140 3141 3141 3143 3145 3148 3149 3150 3151 3151 3152 3155 3157 3158 3157 3157 3158 3159 3160 3162 3162 3163 3164 3166 3167 3169 3170 3171 3173 3174 3176 3177 3179 3180 3181 3183 3184 3185 3187 3188 3190 3191 3192 3193 3193 3194 3195 3196 3196 3197 3198 3199 3199 3200 3200 3201 3201 3201
3112 3111 3112 3113 3115 3118 3121 3123 3124 3127 3130 3132 3133 3133 3133 3132 3132 3132 3132 3133 3128 3123 3127 3132 3135 3136 3132 3131 3135 3136 3138 3140 3142 3144 3146 3147 3148 3148 3149 3150 3152 3155 3156 3156 3156 3156 3158 3159 3160 3161 3162 3163 3165 3166 3167 3168 3170 3171 3173 3175 3176 3178 3179 3180 3182 3183 3185 3186 3188 3189 3190 3191 3192 3193 3193 3194 3195 3196 3197 3198 3198 3199 3199 3199 3200 3200
3108 3108 3109 3111 3112 3114 3117 3118 3120 3123 3125 3127 3129 3130 3129 3129 3129 3128 3127 3125 3122 3122 3125 3127 3130 3129 3125 3128 3132 3133 3135 3137 3138 3141 3143 3145 3146 3146 3147 3148 3149 3151 3153 3153 3153 3154 3155 3156 3157 3159 3160 3161 3163 3164 3165 3166 3168 3169 3170 3172 3174 3175 3177 3178 3180 3181 3183 3184 3186 3187 3188 3189 3190 3191 3192 3193 3194 3195 3195 3196 3197 3197 3198 3198 3199 3199
3103 3105 3106 3107 3107 3109 3111 3113 3113 3116 3119 3121 3123 3123 3123 3123 3124 3124 3123 3120 3118 3120 3122 3126 3127 3124 3122 3126 3128 3130 3133 3134 3135 3138 3140 3142 3143 3144 3144 3146 3147 3148 3150 3150 3150 3151 3152 3153 3155 3156 3157 3159 3160 3162 3163 3164 3165 3167 3168 3169 3171 3173 3175 3176 3178 3180 3181 3183 3184 3186 3187 3188 3189 3189 3190 3192 3192 3193 3194 3195 3195 3196 3196 3197 3197 3197
3097 3096 3097 3100 3101 3103 3105 3107 3109 3112 3115 3116 3118 3120 3119 3118 3118 3117 3117 3117 3117 3118 3120 3122 3122 3120 3120 3122 3124 3127 3130 3132 3133 3135 3137 3139 3141 3142 3142 3143 3144 3145 3147 3147 3147 3149 3150 3150 3152 3153 3155 3156 3158 3160 3161 3162 3163 3164 3166 3167 3169 3171 3173 3175 3176 3178 3180 3181 3182 3184 3185 3186 3187 3188 3189 3190 3191 3191 3192 3193 3193 3194 3194 3195 3195 3195
3092 3090 3092 3096 3098 3100 3101 3103 3108 3111 3111 3113 3117 3117 3113 3115 3117 3114 3112 3114 3117 3116 3115 3115 3113 3115 3119 3119 3121 3124 3126 3129 3131 3133 3135 3136 3137 3139 3140 3140 3141 3142 3143 3142 3144 3146 3147 3148 3149 3151 3152 3153 3155 3157 3158 3160 3161 3162 3164 3166 3168 3169 3171 3173 3175 3176 3178 3179 3181 3182 3183 3184 3185 3186 3187 3188 3189 3190 3190 3191 3191 3192 3192 3193 3193 3193
3088 3087 3090 3093 3094 3096 3098 3101 3105 3106 3105 3108 3112 3109 3108 3115 3118 3114 3112 3113 3114 3111 3109 3109 3108 3111 3115 3116 3118 3122 3123 3126 3128 3130 3132 3133 3134 3136 3138 3140 3140 3139 3139 3139 3141 3143 3145 3146 3147 3148 3150 3151 3152 3154 3156 3157 3159 3161 3163 3164 3166 3167 3169 3171 3173 3175 3176 3177 3179 3180 3181 3182 3183 3184 3185 3186 3187 3188 3188 3189 3189 3190 3190 3190 3191 3191
3085 3084 3086 3089 3090 3093 3097 3100 3102 3103 3103 3103 3103 3104 3110 3115 3115 3113 3110 3109 3109 3106 3103 3105 3104 3105 3108 3110 3114 3119 3120 3122 3125 3128 3129 3130 3131 3133 3135 3138 3137 3136 3136 3137 3139 3141 3142 3143 3144 3146 3147 3148 3150 3152 3153 3155 3157 3159 3161 3163 3164 3165 3167 3169 3171 3173 3174 3175 3177 3178 3179 3180 3181 3182 3183 3184 3185 3186 3186 3186 3187 3188 3188 3188 3189 3189
3084 3083 3082 3084 3087 3090 3095 3097 3098 3099 3100 3100 3100 3102 3106 3107 3106 3107 3106 3104 3105 3102 3100 3102 3101 3099 3103 3106 3110 3114 3116 3119 3122 3124 3125 3127 3128 3129 3131 3134 3135 3135 3134 3135 3136 3138 3139 3141 3142 3143 3144 3146 3148 3149 3151 3153 3155 3157 3159 3160 3162 3164 3166 3168 3169 3171 3172 3173 3175 3176 3177 3178 3179 3180 3181 3182 3183 3183 3184 3184 3185 3185 3185 3186 3186 3187
3082 3082 3080 3081 3085 3089 3091 3092 3091 3091 3095 3098 3099 3099 3099 3099 3100 3101 3102 3102 3102 3098 3097 3099 3097 3095 3098 3102 3106 3110 3112 3116 3118 3120 3122 3124 3125 3126 3127 3129 3131 3132 3132 3133 3134 3135 3136 3138 3139 3141 3142 3143 3145 3147 3149 3150 3152 3154 3156 3158 3160 3162 3164 3165 3166 3168 3169 3171 3173 3174 3175 3176 3177 3178 3179 3180 3181 3181 3181 3182 3183 3183 3183 3183 3184 3184
3080 3081 3079 3078 3082 3085 3083 3082 3083 3085 3088 3091 3093 3092 3093 3094 3096 3098 3098 3099 3099 3096 3094 3095 3092 3093 3097 3099 3101 3105 3109 3113 3114 3116 3118 3121 3122 3123 3124 3125 3127 3129 3129 3131 3133 3133 3134 3135 3136 3138 3140 3141 3143 3144 3146 3148 3149 3151 3153 3155 3157 3159 3161 3162 3164 3165 3167 3169 3170 3171 3172 3173 3174 3176 3177 3178 3178 3178 3179 3180 3180 3181 3181 3181 3181 3182
3077 3078 3078 3076 3076 3077 3077 3077 3081 3083 3084 3086 3087 3088 3089 3089 3092 3093 3090 3091 3095 3095 3093 3092 3089 3090 3095 3097 3098 3103 3107 3110 3112 3113 3115 3117 3119 3121 3122 3122 3123 3125 3127 3129 3130 3131 3132 3133 3134 3136 3137 3139 3140 3141 3143 3144 3146 3148 3150 3152 3155 3156 3158 3160 3161 3163 3165 3166 3168 3169 3170 3171 3172 3173 3174 3175 3176 3176 3177 3177 3178 3179 3179 3178 3179 3180
3075 3075 3075 3073 3071 3072 3074 3077 3079 3081 3083 3084 3084 3085 3088 3087 3087 3086 3084 3087 3091 3092 3093 3093 3088 3087 3092 3095 3097 3100 3104 3107 3109 3111 3113 3115 3117 3119 3120 3121 3120 3122 3125 3127 3128 3129 3130 3130 3131 3132 3134 3135 3136 3138 3140 3141 3143 3145 3146 3149 3151 3153 3155 3157 3159 3160 3162 3164 3165 3167 3168 3169 3170 3171 3172 3172 3173 3174 3175 3175 3176 3176 3176 3176 3176 3177
3072 3071 3071 3072 3071 3071 3072 3075 3076 3078 3080 3080 3078 3081 3083 3083 3083 3083 3084 3087 3088 3086 3089 3090 3085 3085 3092 3095 3096 3099 3101 3104 3106 3109 3111 3113 3115 3117 3118 3119 3119 3119 3122 3125 3125 3126 3127 3128 3128 3129 3130 3131 3133 3134 3136 3138 3140 3142 3144 3146 3148 3150 3153 3155 3156 3158 3160 3161 3163 3164 3165 3166 3167 3168 3169 3170 3170 3172 3173 3173 3173 3174 3174 3174 3174 3174
3066 3067 3067 3068 3068 3068 3067 3069 3070 3071 3073 3073 3073 3075 3077 3078 3081 3082 3084 3085 3083 3081 3086 3084 3079 3084 3091 3094 3096 3098 3099 3101 3104 3107 3109 3111 3113 3115 3116 3116 3116 3117 3120 3122 3123 3124 3125 3125 3126 3126 3127 3128 3129 3131 3133 3135 3137 3139 3141 3143 3145 3148 3150 3152 3154 3155 3157 3159 3160 3161 3162 3163 3164 3165 3166 3167 3168 3170 3171 3170 3170 3171 3171 3172 3171 3171
3061 3062 3064 3062 3061 3060 3059 3059 3061 3064 3067 3069 3070 3071 3072 3074 3077 3079 3081 3080 3076 3079 3084 3080 3076 3083 3090 3092 3094 3096 3098 3100 3103 3105 3107 3108 3110 3112 3113 3113 3114 3116 3118 3119 3120 3121 3122 3123 3124 3124 3124 3125 3126 3128 3130 3132 3134 3136 3138 3140 3143 3145 3147 3149 3151 3152 3154 3156 3157 3158 3159 3160 3161 3162 3163 3165 3166 3167 3168 3168 3167 3167 3168 3169 3168 3167
3058 3058 3059 3058 3057 3056 3056 3057 3060 3063 3064 3066 3067 3069 3070 3071 3074 3077 3077 3074 3074 3079 3080 3077 3079 3084 3086 3088 3090 3092 3095 3098 3101 3103 3104 3105 3107 3108 3109 3110 3112 3114 3115 3116 3117 3118 3119 3120 3121 3122 3122 3123 3124 3125 3127 3129 3131 3133 3135 3137 3140 3142 3144 3147 3148 3149 3151 3153 3155 3155 3156 3157 3158 3160 3161 3162 3164 3165 3165 3165 3165 3164 3164 3165 3165 3164
3056 3054 3053 3056 3057 3057 3057 3058 3060 3062 3061 3061 3064 3066 3067 3068 3070 3072 3070 3070 3074 3076 3073 3075 3082 3083 3083 3085 3087 3088 3091 3094 3097 3100 3102 3103 3104 3106 3106 3107 3109 3110 3111 3113 3114 3115 3116 3117 3117 3119 3120 3120 3121 3122 3124 3126 3128 3131 3133 3135 3137 3139 3141 3143 3145 3146 3147 3150 3151 3152 3153 3154 3156 3157 3158 3160 3161 3162 3162 3162 3162 3162 3161 3161 3161 3160
3053 3052 3051 3054 3055 3057 3058 3057 3058 3060 3060 3060 3061 3063 3065 3066 3067 3066 3066 3069 3072 3070 3069 3075 3079 3079 3081 3084 3084 3085 3088 3090 3093 3096 3098 3100 3101 3103 3104 3105 3105 3107 3108 3109 3111 3112 3113 3114 3114 3116 3117 3118 3119 3119 3121 3123 3126 3128 3130 3132 3134 3136 3138 3140 3141 3143 3144 3147 3148 3149 3151 3152 3153 3155 3156 3157 3158 3158 3159 3159 3159 3159 3158 3157 3157 3157
3051 3050 3051 3053 3053 3054 3056 3056 3057 3058 3058 3058 3059 3060 3061 3062 3064 3064 3065 3067 3068 3067 3069 3074 3075 3075 3078 3081 3082 3084 3085 3087 3091 3092 3094 3096 3098 3099 3101 3102 3103 3104 3104 3105 3106 3108 3110 3111 3112 3113 3114 3115 3116 3117 3118 3120 3122 3125 3127 3129 3131 3133 3135 3136 3138 3140 3142 3144 3145 3147 3148 3149 3151 3152 3153 3154 3154 3155 3156 3156 3156 3155 3154 3154 3154 3153
3049 3048 3050 3053 3051 3051 3052 3054 3055 3055 3055 3055 3055 3056 3057 3058 3059 3061 3062 3063 3065 3065 3068 3071 3070 3071 3075 3078 3080 3082 3082 3083 3086 3088 3090 3092 3094 3096 3098 3099 3100 3102 3102 3102 3102 3103 3105 3107 3109 3110 3111 3112 3113 3114 3115 3117 3120 3122 3124 3126 3128 3130 3131 3133 3135 3137 3139 3141 3142 3143 3145 3146 3148 3149 3150 3151 3151 3152 3153 3153 3153 3152 3151 3151 3150 3150
3046 3047 3049 3051 3050 3047 3049 3051 3051 3052 3054 3052 3050 3051 3052 3053 3054 3055 3057 3059 3060 3062 3065 3067 3065 3067 3072 3076 3077 3079 3081 3080 3081 3084 3087 3089 3090 3092 3094 3095 3097 3099 3100 3100 3100 3099 3100 3102 3105 3107 3108 3109 3109 3111 3113 3115 3117 3119 3121 3123 3125 3127 3128 3130 3132 3135 3136 3138 3139 3140 3142 3144 3145 3146 3147 3148 3149 3149 3149 3149 3150 3149 3148 3147 3147 3146
3042 3044 3045 3047 3046 3044 3047 3049 3048 3051 3050 3045 3043 3045 3047 3048 3050 3051 3052 3055 3057 3059 3061 3061 3061 3065 3071 3074 3074 3075 3077 3078 3078 3080 3082 3084 3087 3089 3090 3091 3093 3094 3097 3098 3098 3097 3096 3097 3101 3104 3104 3105 3106 3108 3110 3111 3113 3115 3117 3120 3122 3124 3125 3127 3129 3131 3133 3134 3136 3137 3139 3141 3142 3143 3144 3145 3146 3146 3146 3146 3146 3145 3145 3145 3144 3142
3038 3040 3042 3044 3043 3042 3044 3047 3048 3047 3041 3036 3039 3045 3047 3047 3047 3047 3048 3050 3052 3055 3056 3057 3060 3064 3067 3069 3069 3071 3072 3074 3075 3076 3078 3080 3082 3083 3085 3087 3088 3090 3093 3095 3095 3095 3093 3093 3097 3100 3100 3101 3103 3104 3106 3108 3110 3112 3115 3117 3119 3121 3122 3124 3126 3128 3129 3131 3133 3134 3136 3138 3139 3140 3141 3141 3142 3142 3143 3142 3142 3142 3141 3141 3140 3138
3033 3036 3039 3041 3041 3040 3042 3044 3043 3038 3032 3034 3040 3044 3045 3046 3046 3045 3044 3045 3048 3050 3052 3053 3056 3060 3062 3064 3065 3066 3068 3070 3071 3072 3073 3075 3076 3078 3080 3081 3083 3085 3088 3091 3092 3092 3090 3090 3095 3097 3096 3097 3099 3100 3102 3105 3107 3109 3111 3113 3115 3117 3119 3121 3123 3124 3126 3128 3130 3131 3133 3135 3136 3137 3137 3138 3138 3138 3139 3139 3138 3138 3138 3137 3136 3134
3029 3033 3036 3037 3038 3039 3039 3039 3036 3032 3032 3037 3040 3039 3041 3043 3044 3043 3041 3040 3043 3047 3049 3050 3052 3055 3058 3060 3061 3062 3064 3066 3066 3067 3068 3069 3070 3072 3073 3075 3077 3080 3083 3085 3086 3086 3086 3088 3092 3093 3092 3094 3095 3097 3099 3101 3103 3105 3107 3110 3112 3114 3116 3118 3119 3121 3124 3125 3127 3129 3130 3132 3133 3133 3134 3134 3134 3135 3135 3135 3134 3134 3134 3133 3132 3130
3028 3030 3033 3034 3034 3035 3035 3034 3033 3032 3034 3037 3036 3036 3039 3040 3041 3041 3039 3038 3040 3043 3045 3048 3050 3052 3053 3055 3057 3060 3061 3062 3061 3061 3062 3063 3065 3067 3068 3070 3073 3076 3078 3079 3080 3081 3082 3086 3089 3089 3089 3090 3092 3093 3095 3097 3099 3102 3104 3107 3109 3111 3113 3114 3116 3118 3120 3122 3124 3125 3127 3128 3129 3129 3130 3130 3131 3131 3131 3131 3131 3131 3131 3130 3128 3126
3026 3028 3030 3031 3031 3032 3033 3032 3030 3030 3030 3032 3032 3033 3036 3038 3039 3040 3039 3039 3041 3042 3043 3044 3046 3048 3050 3051 3054 3057 3058 3057 3056 3055 3057 3060 3061 3062 3064 3066 3070 3071 3072 3073 3074 3076 3079 3082 3084 3084 3085 3087 3088 3089 3092 3094 3096 3099 3101 3103 3105 3107 3109 3111 3113 3115 3117 3119 3120 3122 3123 3124 3125 3126 3126 3127 3127 3128 3128 3128 3128 3128 3128 3126 3125 3123
3024 3026 3029 3029 3028 3029 3029 3028 3026 3025 3026 3029 3031 3033 3035 3037 3038 3039 3040 3040 3041 3041 3041 3041 3042 3043 3045 3047 3050 3053 3053 3051 3049 3051 3055 3057 3058 3059 3060 3062 3064 3066 3067 3067 3069 3072 3075 3078 3080 3081 3082 3083 3084 3086 3089 3091 3094 3096 3098 3100 3102 3104 3106 3108 3110 3112 3114 3115 3117 3118 3119 3120 3121 3122 3122 3123 3123 3124 3124 3124 3124 3123 3123 3122 3120 3119
3020 3022 3024 3025 3025 3026 3026 3025 3024 3024 3026 3028 3029 3032 3035 3036 3037 3039 3039 3036 3036 3037 3038 3039 3040 3041 3042 3043 3045 3047 3047 3045 3046 3049 3053 3054 3056 3057 3057 3058 3059 3062 3062 3063 3064 3067 3070 3073 3075 3077 3078 3079 3080 3082 3085 3087 3090 3093 3095 3098 3100 3101 3103 3105 3107 3109 3110 3112 3113 3114 3115 3116 3117 3118 3118 3119 3119 3119 3119 3119 3119 3118 3118 3117 3116 3115
3015 3017 3019 3020 3020 3022 3023 3023 3022 3023 3025 3026 3027 3030 3033 3035 3037 3036 3034 3032 3033 3034 3035 3036 3037 3038 3039 3041 3041 3042 3043 3043 3045 3048 3050 3052 3052 3052 3052 3054 3056 3057 3058 3059 3061 3063 3066 3068 3071 3073 3074 3075 3076 3079 3081 3084 3087 3090 3092 3095 3096 3098 3100 3102 3104 3105 3107 3109 3110 3111 3112 3113 3113 3114 3114 3115 3115 3115 3114 3114 3114 3113 3114 3113 3111 3110
3009 3011 3013 3014 3016 3018 3020 3021 3021 3021 3022 3023 3026 3029 3032 3034 3035 3033 3031 3031 3031 3031 3032 3033 3034 3034 3036 3037 3037 3038 3039 3041 3043 3046 3047 3048 3047 3047 3048 3050 3051 3053 3054 3055 3057 3059 3061 3064 3066 3068 3069 3071 3073 3075 3077 3081 3084 3086 3089 3091 3093 3095 3097 3099 3101 3103 3104 3106 3108 3109 3110 3110 3110 3110 3110 3110 3111 3110 3110 3110 3109 3108 3109 3108 3106 3105
3002 3005 3007 3009 3011 3014 3016 3017 3018 3018 3017 3019 3024 3028 3030 3030 3030 3029 3029 3029 3028 3029 3031 3031 3030 3031 3032 3032 3034 3035 3035 3038 3040 3040 3041 3042 3042 3042 3044 3045 3047 3048 3050 3051 3053 3055 3057 3059 3061 3063 3065 3067 3069 3071 3074 3077 3080 3082 3084 3086 3089 3091 3094 3096 3098 3100 3102 3104 3105 3106 3107 3107 3106 3107 3107 3106 3106 3106 3105 3105 3104 3103 3103 3103 3101 3100
3000 3003 3004 3005 3008 3010 3011 3012 3013 3013 3015 3018 3023 3025 3025 3025 3025 3025 3026 3026 3025 3026 3028 3028 3027 3027 3027 3028 3030 3031 3032 3034 3035 3034 3035 3038 3039 3039 3039 3041 3042 3044 3046 3047 3049 3051 3052 3054 3057 3059 3061 3063 3065 3068 3071 3074 3076 3078 3081 3083 3086 3088 3091 3093 3095 3097 3100 3102 3103 3103 3103 3103 3103 3103 3103 3102 3102 3101 3101 3100 3099 3099 3098 3097 3096 3095
2996 3000 3001 3002 3005 3007 3008 3008 3009 3011 3013 3017 3020 3021 3022 3023 3023 3023 3023 3023 3022 3023 3025 3025 3024 3024 3024 3025 3026 3027 3029 3029 3029 3030 3032 3035 3036 3034 3034 3036 3038 3040 3042 3043 3044 3046 3048 3050 3053 3055 3057 3059 3062 3065 3069 3072 3074 3077 3079 3081 3084 3086 3088 3090 3092 3093 3096 3098 3100 3100 3100 3099 3099 3099 3099 3098 3098 3097 3096 3095 3095 3094 3094 3092 3091 3091
2995 2997 2999 3001 3003 3004 3005 3005 3007 3009 3012 3015 3017 3019 3020 3020 3020 3020 3021 3021 3020 3021 3022 3022 3022 3022 3022 3024 3025 3025 3025 3025 3026 3027 3029 3030 3031 3030 3030 3032 3035 3036 3037 3039 3040 3043 3045 3048 3050 3052 3054 3057 3060 3063 3067 3070 3073 3075 3076 3078 3081 3083 3085 3087 3089 3090 3092 3094 3096 3096 3096 3096 3095 3095 3094 3094 3093 3093 3092 3091 3090 3090 3089 3088 3087 3087
2995 2997 2998 3000 3001 3002 3003 3004 3005 3007 3010 3013 3015 3017 3017 3017 3016 3017 3018 3018 3018 3018 3018 3019 3020 3021 3021 3023 3023 3022 3021 3021 3022 3024 3025 3026 3028 3028 3028 3030 3031 3032 3034 3036 3038 3041 3043 3045 3048 3050 3052 3055 3058 3062 3065 3067 3070 3072 3075 3077 3080 3081 3083 3085 3086 3087 3089 3091 3092 3092 3092 3092 3091 3091 3090 3090 3089 3088 3088 3087 3086 3085 3085 3084 3083 3083
2995 2996 2997 2998 2999 3000 3001 3002 3003 3006 3009 3011 3012 3013 3014 3014 3013 3014 3014 3015 3015 3015 3016 3017 3019 3020 3020 3021 3021 3020 3020 3019 3019 3021 3022 3023 3025 3026 3028 3030 3030 3029 3031 3034 3036 3038 3041 3043 3046 3049 3051 3053 3056 3060 3063 3065 3068 3071 3074 3076 3077 3078 3080 3082 3082 3084 3086 3088 3088 3089 3088 3087 3087 3086 3085 3085 3085 3084 3083 3082 3082 3081 3080 3079 3080 3080
2993 2994 2995 2996 2997 2998 2999 3001 3003 3005 3007 3008 3009 3011 3011 3011 3011 3010 3010 3010 3011 3013 3014 3015 3017 3018 3019 3019 3018 3019 3020 3019 3019 3019 3020 3021 3024 3026 3029 3030 3030 3029 3031 3034 3036 3039 3041 3044 3046 3049 3051 3054 3056 3059 3062 3065 3067 3069 3071 3072 3074 3076 3077 3078 3079 3081 3083 3084 3085 3085 3084 3084 3083 3082 3081 3080 3080 3080 3079 3078 3078 3078 3076 3076 3077 3078
2992 2993 2995 2996 2996 2997 2999 3001 3003 3004 3005 3006 3007 3008 3009 3010 3010 3009 3008 3008 3009 3010 3011 3012 3014 3015 3015 3015 3016 3017 3018 3018 3017 3017 3019 3021 3025 3028 3030 3031 3031 3031 3033 3036 3037 3040 3042 3045 3047 3049 3051 3054 3056 3058 3061 3063 3064 3065 3067 3069 3071 3072 3074 3075 3076 3077 3079 3080 3080 3080 3080 3079 3078 3077 3077 3076 3076 3076 3075 3075 3074 3073 3073 3074 3074 3074
2991 2992 2995 2996 2996 2998 2999 2999 3001 3003 3004 3004 3006 3007 3008 3009 3009 3009 3009 3008 3008 3009 3010 3011 3012 3013 3014 3014 3014 3016 3017 3017 3017 3017 3018 3022 3025 3028 3030 3032 3032 3034 3035 3036 3038 3040 3042 3044 3047 3049 3051 3053 3055 3057 3059 3061 3062 3064 3065 3067 3068 3070 3071 3072 3073 3074 3074 3074 3075 3075 3074 3074 3073 3072 3072 3072 3071 3071 3071 3070 3070 3069 3070 3070 3070 3070